User: anonymous   Login
Location: Maiden
(35.5760°N, 81.2120°W)
Time: 03:24:16
(UTC-04:00)
Language:

Cosmos 1328 Rocket - Orbit

View from above orbital plane
View from above orbital plane
View from above satellite
View from above satellite

Ground track
Ground track

The orbit data is extracted from the following two-line orbital elements,

1 12988U 81117B   20266.13342159  .00000078  00000-0  62965-5 0  9998
2 12988  82.5263  34.2581 0017000 222.5038 311.0359 14.84776316 96823
Epoch (UTC): 22 September 2020 03:12:07
Eccentricity: 0.0017000
inclination: 82.5263°
perigee height: 602 km
apogee height: 626 km
right ascension of ascending node: 34.2581°
argument of perigee: 222.5038°
revolutions per day: 14.84776316
mean anomaly at epoch: 311.0359°
orbit number at epoch: 9682

The dashed part of the orbit path shows where the satellite is in the earth's shadow,  

DLR